Location: Bergnershof
(48.9468°N, 10.9431°E)
Time: 16:30:11
(UTC+00:00)

Cosmos 2333 Rocket - Pass Details

Date: 03 July 2021
Orbit: 841 x 861 km, 70.8° (Epoch: 28 July)

Event Time Altitude Azimuth Distance (km) Brightness Sun altitude
Rises 21:09:33 0° 282° (WNW) 3,424 6.0 -12.4°
Reaches altitude 10° 21:13:58 10° 314° (NW) 2,486 5.9 -12.8°
Maximum altitude 21:15:56 12° 335° (NNW) 2,364 6.0 -13.0°
Drops below altitude 10° 21:17:54 10° 355° (N) 2,484 5.8 -13.1°
Sets 21:22:20 0° 27° (NNE) 3,417 5.9 -13.5°
